Time,TemperatureF,DewpointF,PressureIn,WindDirection,WindDirectionDegrees,WindSpeedMPH,WindSpeedGustMPH,Humidity,HourlyPrecipIn,Conditions,Clouds,dailyrainin,SoftwareType,DateUTC
2013-11-21 00:12:00,39.0,32.0,30.34,SSW,195,0.0,0.0,76,0.00,,,0.00,,2013-11-21 05:12:00,
2013-11-21 00:23:00,39.0,32.0,30.34,SSW,195,0.0,0.0,76,0.00,,,0.00,,2013-11-21 05:23:00,
2013-11-21 00:42:00,39.0,32.0,30.34,SSW,195,0.0,0.0,77,0.00,,,0.00,,2013-11-21 05:42:00,
2013-11-21 00:53:00,39.0,32.0,30.34,SSW,195,0.0,0.0,77,0.00,,,0.00,,2013-11-21 05:53:00,
2013-11-21 01:12:00,39.0,32.0,30.34,SSW,195,0.0,0.0,77,0.00,,,0.00,,2013-11-21 06:12:00,
2013-11-21 01:22:00,39.0,32.0,30.34,SSW,195,0.0,0.0,77,0.00,,,0.00,,2013-11-21 06:22:00,
2013-11-21 01:43:00,39.0,33.0,30.34,SSW,195,0.0,0.0,79,0.00,,,0.00,,2013-11-21 06:43:00,
2013-11-21 01:52:00,39.0,33.0,30.34,SSW,195,0.0,0.0,79,0.00,,,0.00,,2013-11-21 06:52:00,
2013-11-21 02:11:00,39.0,32.0,30.34,SSW,195,0.0,0.0,76,0.00,,,0.00,,2013-11-21 07:11:00,
2013-11-21 02:22:00,39.0,32.0,30.34,SSW,195,0.0,0.0,76,0.00,,,0.00,,2013-11-21 07:22:00,
2013-11-21 02:42:00,39.0,32.0,30.34,SSW,195,0.0,0.0,77,0.00,,,0.00,,2013-11-21 07:42:00,
2013-11-21 02:52:00,39.0,32.0,30.34,SSW,195,0.0,0.0,77,0.00,,,0.00,,2013-11-21 07:52:00,
2013-11-21 03:12:00,39.0,31.0,30.34,SSW,195,0.0,0.0,74,0.00,,,0.00,,2013-11-21 08:12:00,
2013-11-21 03:22:00,39.0,31.0,30.34,SSW,195,0.0,0.0,74,0.00,,,0.00,,2013-11-21 08:22:00,
2013-11-21 03:42:00,39.0,32.0,30.34,SSW,195,0.0,0.0,75,0.00,,,0.00,,2013-11-21 08:42:00,
2013-11-21 03:52:00,39.0,32.0,30.34,SSW,195,0.0,0.0,75,0.00,,,0.00,,2013-11-21 08:52:00,
2013-11-21 04:11:00,39.0,32.0,30.34,SSW,195,0.0,0.0,77,0.00,,,0.00,,2013-11-21 09:11:00,
2013-11-21 04:22:00,39.0,32.0,30.34,SSW,195,0.0,0.0,77,0.00,,,0.00,,2013-11-21 09:22:00,
2013-11-21 04:43:00,39.0,32.0,30.34,SSW,195,0.0,0.0,76,0.00,,,0.00,,2013-11-21 09:43:00,
2013-11-21 04:53:00,39.0,32.0,30.34,SSW,195,0.0,0.0,76,0.00,,,0.00,,2013-11-21 09:53:00,
2013-11-21 05:13:00,39.0,33.0,30.35,SSW,195,0.0,0.0,78,0.00,,,0.00,,2013-11-21 10:13:00,
2013-11-21 05:23:00,39.0,33.0,30.35,SSW,195,0.0,0.0,78,0.00,,,0.00,,2013-11-21 10:23:00,
2013-11-21 05:42:00,39.0,33.0,30.35,SSW,195,0.0,0.0,78,0.00,,,0.00,,2013-11-21 10:42:00,
2013-11-21 05:53:00,39.0,33.0,30.35,SSW,195,0.0,0.0,78,0.00,,,0.00,,2013-11-21 10:53:00,
2013-11-21 06:12:00,39.0,33.0,30.36,SSW,195,0.0,0.0,79,0.00,,,0.00,,2013-11-21 11:12:00,
2013-11-21 06:22:00,39.0,33.0,30.36,SSW,195,0.0,0.0,79,0.00,,,0.00,,2013-11-21 11:22:00,
2013-11-21 06:43:00,39.0,33.0,30.34,SSW,195,0.0,0.0,78,0.00,,,0.00,,2013-11-21 11:43:00,
2013-11-21 06:53:00,39.0,33.0,30.34,SSW,195,0.0,0.0,78,0.00,,,0.00,,2013-11-21 11:53:00,
2013-11-21 07:12:00,39.0,34.0,30.34,SSW,195,0.0,0.0,81,0.00,,,0.00,,2013-11-21 12:12:00,
2013-11-21 07:22:00,39.0,34.0,30.34,SSW,195,0.0,0.0,81,0.00,,,0.00,,2013-11-21 12:22:00,
2013-11-21 07:42:00,39.0,35.0,30.35,SSW,195,0.0,0.0,84,0.00,,,0.00,,2013-11-21 12:42:00,
2013-11-21 07:52:00,39.0,35.0,30.35,SSW,195,0.0,0.0,84,0.00,,,0.00,,2013-11-21 12:52:00,
2013-11-21 08:11:00,39.0,33.0,30.36,SSW,195,0.0,0.0,80,0.00,,,0.00,,2013-11-21 13:11:00,
2013-11-21 08:22:00,39.0,33.0,30.36,SSW,195,0.0,0.0,80,0.00,,,0.00,,2013-11-21 13:22:00,
2013-11-21 08:42:00,39.0,34.0,30.36,SSW,195,0.0,0.0,82,0.00,,,0.00,,2013-11-21 13:42:00,
2013-11-21 08:52:00,39.0,34.0,30.36,SSW,195,0.0,0.0,82,0.00,,,0.00,,2013-11-21 13:52:00,
2013-11-21 09:11:00,40.0,36.0,30.37,SSW,195,0.0,0.0,84,0.00,,,0.00,,2013-11-21 14:11:00,
2013-11-21 09:22:00,40.0,36.0,30.37,SSW,195,0.0,0.0,84,0.00,,,0.00,,2013-11-21 14:22:00,
2013-11-21 09:42:00,40.0,36.0,30.39,SSW,195,0.0,0.0,85,0.00,,,0.00,,2013-11-21 14:42:00,
2013-11-21 09:52:00,40.0,36.0,30.39,SSW,195,0.0,0.0,85,0.00,,,0.00,,2013-11-21 14:52:00,
2013-11-21 10:12:00,41.0,38.0,30.40,SSW,195,0.0,0.0,88,0.00,,,0.00,,2013-11-21 15:12:00,
2013-11-21 10:22:00,41.0,38.0,30.40,SSW,195,0.0,0.0,88,0.00,,,0.00,,2013-11-21 15:22:00,
2013-11-21 10:43:00,41.0,40.0,30.40,SSW,195,0.0,0.0,96,0.01,,,0.01,,2013-11-21 15:43:00,
2013-11-21 10:53:00,41.0,40.0,30.40,SSW,195,0.0,0.0,96,0.01,,,0.01,,2013-11-21 15:53:00,
2013-11-21 11:13:00,41.0,41.0,30.39,SSW,195,0.0,0.0,99,0.01,,,0.01,,2013-11-21 16:13:00,
2013-11-21 11:24:00,41.0,41.0,30.39,SSW,195,0.0,0.0,99,0.01,,,0.01,,2013-11-21 16:24:00,
2013-11-21 11:42:00,42.0,42.0,30.38,SSW,195,0.0,0.0,100,0.00,,,0.01,,2013-11-21 16:42:00,
2013-11-21 11:53:00,42.0,42.0,30.38,SSW,195,0.0,0.0,100,0.00,,,0.01,,2013-11-21 16:53:00,
2013-11-21 12:12:00,42.0,42.0,30.37,SSW,195,0.0,0.0,100,0.00,,,0.01,,2013-11-21 17:12:00,
2013-11-21 12:22:00,42.0,42.0,30.37,SSW,195,0.0,0.0,100,0.00,,,0.01,,2013-11-21 17:22:00,
2013-11-21 12:42:00,43.0,43.0,30.35,SSW,195,0.0,0.0,100,0.01,,,0.02,,2013-11-21 17:42:00,
2013-11-21 12:52:00,43.0,43.0,30.35,SSW,195,0.0,0.0,100,0.01,,,0.02,,2013-11-21 17:52:00,
2013-11-21 13:12:00,43.0,43.0,30.35,SSW,195,0.0,0.0,100,0.02,,,0.03,,2013-11-21 18:12:00,
2013-11-21 13:22:00,43.0,43.0,30.35,SSW,195,0.0,0.0,100,0.02,,,0.03,,2013-11-21 18:22:00,
2013-11-21 13:42:00,43.0,43.0,30.33,SSE,155,0.0,0.0,100,0.03,,,0.05,,2013-11-21 18:42:00,
2013-11-21 13:52:00,43.0,43.0,30.33,SSE,155,0.0,0.0,100,0.03,,,0.05,,2013-11-21 18:52:00,
2013-11-21 14:12:00,43.0,43.0,30.32,SSE,155,0.0,0.0,100,0.03,,,0.06,,2013-11-21 19:12:00,
2013-11-21 14:22:00,43.0,43.0,30.32,SSE,155,0.0,0.0,100,0.03,,,0.06,,2013-11-21 19:22:00,
2013-11-21 14:42:00,44.0,44.0,30.31,SSE,155,0.0,0.0,100,0.02,,,0.07,,2013-11-21 19:42:00,
2013-11-21 14:52:00,44.0,44.0,30.31,SSE,155,0.0,0.0,100,0.02,,,0.07,,2013-11-21 19:52:00,
2013-11-21 15:12:00,44.0,44.0,30.30,SSE,155,0.0,0.0,100,0.01,,,0.07,,2013-11-21 20:12:00,
2013-11-21 15:22:00,44.0,44.0,30.30,SSE,155,0.0,0.0,100,0.01,,,0.07,,2013-11-21 20:22:00,
2013-11-21 15:42:00,44.0,44.0,30.30,SSE,155,0.0,0.0,100,0.02,,,0.09,,2013-11-21 20:42:00,
2013-11-21 15:52:00,44.0,44.0,30.30,SSE,155,0.0,0.0,100,0.02,,,0.09,,2013-11-21 20:52:00,
2013-11-21 16:11:00,44.0,44.0,30.30,SSE,155,0.0,0.0,100,0.03,,,0.10,,2013-11-21 21:11:00,
2013-11-21 16:22:00,44.0,44.0,30.30,SSE,155,0.0,0.0,100,0.03,,,0.10,,2013-11-21 21:22:00,
2013-11-21 16:43:00,45.0,45.0,30.29,SSE,155,0.0,0.0,100,0.02,,,0.11,,2013-11-21 21:43:00,
2013-11-21 16:54:00,45.0,45.0,30.29,SSE,155,0.0,0.0,100,0.02,,,0.11,,2013-11-21 21:54:00,
2013-11-21 17:13:00,45.0,45.0,30.30,SSE,155,0.0,0.0,100,0.01,,,0.11,,2013-11-21 22:13:00,
2013-11-21 17:23:00,45.0,45.0,30.30,SSE,155,0.0,0.0,100,0.01,,,0.11,,2013-11-21 22:23:00,
2013-11-21 17:43:00,45.0,45.0,30.30,SSE,155,0.0,0.0,100,0.02,,,0.13,,2013-11-21 22:43:00,
2013-11-21 17:53:00,45.0,45.0,30.30,SSE,155,0.0,0.0,100,0.02,,,0.13,,2013-11-21 22:53:00,
2013-11-21 18:12:00,45.0,45.0,30.30,SSE,155,0.0,0.0,100,0.02,,,0.13,,2013-11-21 23:12:00,
2013-11-21 18:22:00,45.0,45.0,30.30,SSE,155,0.0,0.0,100,0.02,,,0.13,,2013-11-21 23:22:00,
2013-11-21 18:42:00,45.0,45.0,30.30,SSE,155,0.0,0.0,100,0.00,,,0.13,,2013-11-21 23:42:00,
2013-11-21 18:53:00,45.0,45.0,30.30,SSE,155,0.0,0.0,100,0.00,,,0.13,,2013-11-21 23:53:00,
2013-11-21 19:11:00,45.0,45.0,30.32,SSE,155,0.0,0.0,100,0.01,,,0.14,,2013-11-22 00:11:00,
2013-11-21 19:22:00,45.0,45.0,30.32,SSE,155,0.0,0.0,100,0.01,,,0.14,,2013-11-22 00:22:00,
2013-11-21 19:42:00,45.0,45.0,30.32,SSE,155,0.0,0.0,100,0.02,,,0.15,,2013-11-22 00:42:00,
2013-11-21 19:52:00,45.0,45.0,30.32,SSE,155,0.0,0.0,100,0.02,,,0.15,,2013-11-22 00:52:00,
2013-11-21 20:12:00,45.0,45.0,30.32,SSE,155,0.0,0.0,100,0.02,,,0.16,,2013-11-22 01:12:00,
2013-11-21 20:22:00,45.0,45.0,30.32,SSE,155,0.0,0.0,100,0.02,,,0.16,,2013-11-22 01:22:00,
2013-11-21 20:42:00,45.0,45.0,30.32,SSE,155,0.0,0.0,100,0.04,,,0.19,,2013-11-22 01:42:00,
2013-11-21 20:52:00,45.0,45.0,30.32,SSE,155,0.0,0.0,100,0.04,,,0.19,,2013-11-22 01:52:00,
2013-11-21 21:02:00,45.0,45.0,30.32,SSE,155,0.0,0.0,100,0.04,,,0.19,,2013-11-22 02:02:00,
2013-11-21 21:11:00,45.0,45.0,30.32,SSE,155,0.0,0.0,100,0.04,,,0.19,,2013-11-22 02:11:00,
2013-11-21 21:42:00,46.0,46.0,30.34,SSE,155,0.0,0.0,100,0.01,,,0.20,,2013-11-22 02:42:00,
2013-11-21 21:53:00,46.0,46.0,30.34,SSE,155,0.0,0.0,100,0.01,,,0.20,,2013-11-22 02:53:00,
2013-11-21 22:11:00,45.0,45.0,30.34,SSE,155,0.0,0.0,100,0.01,,,0.20,,2013-11-22 03:11:00,
2013-11-21 22:22:00,45.0,45.0,30.34,SSE,155,0.0,0.0,100,0.01,,,0.20,,2013-11-22 03:22:00,
2013-11-21 22:43:00,45.0,45.0,30.35,SSE,155,0.0,0.0,100,0.00,,,0.20,,2013-11-22 03:43:00,
2013-11-21 22:54:00,45.0,45.0,30.35,SSE,155,0.0,0.0,100,0.00,,,0.20,,2013-11-22 03:54:00,
2013-11-21 23:13:00,45.0,45.0,30.35,SSE,155,0.0,0.0,100,0.01,,,0.21,,2013-11-22 04:13:00,
2013-11-21 23:23:00,45.0,45.0,30.35,SSE,155,0.0,0.0,100,0.01,,,0.21,,2013-11-22 04:23:00,
2013-11-21 23:43:00,46.0,46.0,30.34,SSE,155,0.0,0.0,100,0.01,,,0.21,,2013-11-22 04:43:00,
2013-11-21 23:53:00,46.0,46.0,30.34,SSE,155,0.0,0.0,100,0.01,,,0.21,,2013-11-22 04:53:00,